Location: Delmar
(42.6220°N, 73.8326°W)
Time: 08:56:51
(UTC+00:00)

Cosmos 1315 Rocket - Pass Details

Date: 29 October 2020
Orbit: 530 x 567 km, 81.2° (Epoch: 23 November)

Event Time Altitude Azimuth Distance (km) Brightness Sun altitude
Rises 22:26:37 0° 152° (SSE) 2,675 6.2 -7.1°
Reaches altitude 10° 22:29:14 10° 134° (SE) 1,796 5.1 -7.6°
Maximum altitude 22:32:00 19° 89° (E) 1,348 4.2 -8.1°
Drops below altitude 10° 22:34:49 10° 44° (NE) 1,822 5.0 -8.6°
Sets 22:37:29 0° 26° (NNE) 2,729 6.0 -9.0°
